This demonstration page uses our WeatherBlox Daily Observations layout. Learn more.

39.29038, -76.61219

Hourly Observations for January 8, 2019

Temp ( °F °C ) Dew Point ( °F °C ) Humidity (%) Winds ( mph kmh ) Pressure ( in mb ) Visibility ( mi km ) Precip ( " mm )
12:54 am 00:54 undefined 39 3.9 32 0 76 76 undefined N/A 30.21 1023 N/A 0.01 0.254
1:54 am 01:54 undefined 38 3.3 34 1.1 86 86 undefined N/A 30.18 1022 N/A 0.07 1.778
2:54 am 02:54 undefined 39 3.9 35 1.7 86 86 undefined N/A 30.15 1021 N/A 0.02 0.508
3:54 am 03:54 undefined 40 4.4 36 2.2 86 86 undefined N/A 30.15 1021 N/A 0 0
4:54 am 04:54 undefined 40 4.4 36 2.2 86 86 undefined N/A 30.09 1019 N/A 0 0
5:54 am 05:54 undefined 40 4.4 36 2.2 86 86 undefined N/A 30.09 1019 N/A 0 0
6:54 am 06:54 undefined 40 4.4 36 2.2 86 86 undefined N/A 30.03 1017 N/A 0 0
7:54 am 07:54 undefined 41 5 37 2.8 86 86 undefined N/A 30.03 1017 N/A 0 0
8:54 am 08:54 undefined 42 5.6 38 3.3 85 85 undefined N/A 30.03 1017 N/A 0 0
9:54 am 09:54 undefined 43 6.1 38 3.3 82 82 undefined N/A 30.03 1017 N/A 0 0
10:54 am 10:54 undefined 44 6.7 38 3.3 79 79 undefined N/A 30 1016 N/A 0 0
11:54 am 11:54 undefined 45 7.2 39 3.9 80 80 undefined N/A 29.91 1013 N/A 0 0
12:54 pm 12:54 undefined 46 7.8 40 4.4 79 79 undefined N/A 29.88 1012 N/A 0 0
1:54 pm 13:54 undefined 48 8.9 40 4.4 74 74 undefined N/A 29.83 1010 N/A 0 0
2:54 pm 14:54 undefined 48 8.9 40 4.4 74 74 undefined N/A 29.8 1009 N/A 0 0
3:54 pm 15:54 undefined 49 9.4 41 5 74 74 undefined N/A 29.77 1008 N/A 0 0
4:54 pm 16:54 undefined 48 8.9 41 5 77 77 undefined N/A 29.74 1007 N/A 0 0
5:54 pm 17:54 undefined 49 9.4 41 5 74 74 undefined N/A 29.74 1007 N/A 0 0
6:54 pm 18:54 undefined 48 8.9 42 5.6 80 80 undefined N/A 29.71 1006 N/A 0 0
7:54 pm 19:54 undefined 47 8.3 41 5 80 80 undefined N/A 29.65 1004 N/A 0 0
8:54 pm 20:54 undefined 47 8.3 42 5.6 83 83 undefined N/A 29.62 1003 N/A 0 0
9:54 pm 21:54 undefined 50 10 45 7.2 83 83 undefined N/A 29.65 1004 N/A 0.15 3.81
10:54 pm 22:54 undefined 50 10 44 6.7 80 80 undefined N/A 29.65 1004 N/A 0.01 0.254
11:54 pm 23:54 undefined 49 9.4 44 6.7 83 83 undefined N/A 29.65 1004 N/A 0 0

Powered by AerisWeather